MDT,Max TemperatureF,Mean TemperatureF,Min TemperatureF,Max Dew PointF,MeanDew PointF,Min DewpointF,Max Humidity, Mean Humidity, Min Humidity, Max Sea Level PressureIn, Mean Sea Level PressureIn, Min Sea Level PressureIn, Max VisibilityMiles, Mean VisibilityMiles, Min VisibilityMiles, Max Wind SpeedMPH, Mean Wind SpeedMPH, Max Gust SpeedMPH,PrecipitationIn, CloudCover, Events, WindDirDegrees
2013-10-1,55,47,39,32,29,19,75,49,30,30.07,30.03,29.98,10,10,10,25,15,36,0.00,0,,248
2013-10-2,51,42,33,37,29,19,100,58,30,30.08,30.01,29.91,10,9,0,15,6,23,0.05,5,Rain-Snow,246
2013-10-3,33,28,24,34,30,23,100,97,87,29.96,29.84,29.79,10,4,0,20,7,24,0.00,8,Fog-Snow,292
2013-10-4,28,24,21,25,22,19,100,91,74,30.24,30.20,30.13,10,3,0,31,19,44,0.00,8,Snow,352
2013-10-5,41,32,23,32,19,-2,100,60,22,30.32,30.27,30.22,10,10,1,14,6,,0.17,1,,263
2013-10-6,55,45,35,36,24,1,76,47,13,30.34,30.32,30.27,10,10,10,14,7,17,0.00,0,,257
2013-10-7,55,50,46,28,14,-2,43,25,12,30.26,30.12,29.96,10,10,10,26,10,37,0.00,0,,243
2013-10-8,51,46,41,27,20,10,57,36,22,29.96,29.88,29.83,10,10,10,24,17,36,0.00,2,,245
2013-10-9,41,37,33,34,32,23,100,85,52,29.99,29.95,29.91,10,10,10,17,11,23,0.00,6,,2
2013-10-10,39,36,33,36,34,32,100,95,75,29.90,29.76,29.68,10,8,0,12,5,,0.19,7,Rain-Snow,319
2013-10-11,41,36,30,36,31,19,100,89,45,30.03,29.88,29.69,10,7,0,14,7,21,0.01,7,Fog-Rain-Snow,338
2013-10-12,41,34,26,30,23,14,100,66,49,30.08,30.05,30.02,10,9,0,13,5,18,0.00,3,Fog,240
2013-10-13,44,38,32,34,31,23,100,83,56,30.07,30.00,29.94,10,10,0,15,4,16,0.00,7,Snow-Thunderstorm,78
2013-10-14,32,28,23,32,27,23,100,93,80,30.08,29.98,29.93,10,5,0,29,16,38,0.00,8,Fog-Snow,358
2013-10-15,30,24,19,25,21,18,100,85,64,30.21,30.17,30.12,10,10,10,21,13,29,0.00,5,Snow,330
2013-10-16,41,32,24,27,17,1,80,54,29,30.05,30.02,29.99,10,10,10,15,5,21,0.00,1,,275
2013-10-17,32,28,23,30,26,23,100,88,69,30.05,30.01,29.97,10,8,0,21,6,28,0.00,7,Snow,20
2013-10-18,35,27,19,27,21,14,100,77,41,30.14,30.10,30.06,10,8,0,14,6,21,0.02,3,Fog,257
2013-10-19,46,39,32,23,18,12,52,43,36,30.09,30.02,29.98,10,10,10,18,6,26,0.00,0,,262
2013-10-20,41,36,30,32,28,16,100,84,36,30.10,30.02,29.96,10,8,0,21,8,30,0.05,6,Rain-Snow,353
2013-10-21,48,38,28,32,23,16,93,57,40,30.21,30.15,30.09,10,10,10,17,6,21,0.00,0,,267
2013-10-22,53,46,39,30,24,19,56,44,28,30.26,30.22,30.19,10,10,10,14,3,18,0.00,0,,270
2013-10-23,53,45,37,28,21,10,53,39,18,30.23,30.22,30.21,10,10,10,12,5,,0.00,0,,243
2013-10-24,53,44,35,28,22,18,65,42,24,30.26,30.23,30.21,10,10,10,10,3,18,0.00,0,,229
2013-10-25,55,48,39,25,18,12,53,33,22,30.32,30.26,30.21,10,10,7,17,7,10,0.00,0,,336
2013-10-26,53,44,35,27,21,18,70,41,28,30.34,30.31,30.20,10,10,10,16,12,22,0.00,0,,265
2013-10-27,50,44,37,23,18,12,52,36,22,30.19,29.98,29.86,10,10,10,21,9,29,0.00,1,,255
2013-10-28,37,28,19,30,25,19,100,89,56,29.88,29.83,29.77,10,5,0,31,18,39,0.00,8,Fog-Snow,351
2013-10-29,28,24,19,28,23,18,100,96,80,29.83,29.80,29.78,10,7,0,18,12,23,0.00,6,Fog-Snow,300
2013-10-30,32,28,23,27,23,18,93,83,69,29.81,29.78,29.75,10,10,10,22,11,29,0.05,3,,256
2013-10-31,39,30,21,28,22,16,87,76,56,29.92,29.88,29.83,10,10,10,22,7,31,0.00,1,,257